Flag for India Weather past 2 weeks in Yavatmal, Maharashtra, India

Now
90 °F

Haze.


Feels Like: 88 °F
Forecast: 82 / 102 °F
Wind: No wind

Location: Nagpur Sonegaon

Current Time: Apr 18, 2015 at 10:58:31 PM

Latest Report: Apr 18, 2015 at 9:40 PM


Visibility: 3 mi

Pressure: 29.74 "Hg

Humidity: 31%

Dew point: 55 °F

Location of YavatmalLocation

Historic Weather in Yavatmal — Graph

°F

Yavatmal temperature yesterday

Maximum temperature yesterday: 100 °F (at 3:40 PM)
Minimum temperature yesterday: 68 °F (at 6:10 AM)
Average temperature yesterday: 84 °F

Past Weeks' High & Low Weather Summary

 TemperatureHumidityPressure
High108 °F (Apr 7, 2:40 PM)94% (Apr 10, 2:40 AM)30.04 "Hg (Apr 10, 2:40 AM)
Low63 °F (Apr 13, 6:10 AM)15% (Apr 5, 3:40 PM)29.62 "Hg (Apr 4, 2:40 PM)
Average84 °F51%29.86 "Hg
* Reported Apr 3 9:40 PM — Apr 18 9:40 PM, Yavatmal, Weather by CustomWeather, © 2015

Note: Actual official high and low records may vary slightly from our data, if they occured in-between our weather recording intervals... More about our weather records

Advertising

Yavatmal weather history for previous 24 hours

 ConditionsComfort  
Time TempWeatherWind HumidityBarometerVisibility
9:40 PM
Sat, Apr 18
90 °FHaze.No wind31%29.74 "Hg3 mi
9:10 PM91 °FHaze.No wind30%29.74 "Hg3 mi
8:40 PM91 °FHaze.No wind30%29.71 "Hg3 mi
8:10 PM93 °FHaze.2 mph28%29.71 "Hg3 mi
7:40 PM93 °FHaze.No wind28%29.71 "Hg3 mi
7:10 PM97 °FHaze.2 mph71%29.68 "Hg3 mi
6:40 PM100 °FHaze.5 mph72%29.68 "Hg3 mi
6:10 PM102 °FHaze.6 mph21%29.65 "Hg3 mi
4:10 PM106 °FPassing clouds.10 mph20%29.65 "Hg4 mi
2:40 PM106 °FPassing clouds.9 mph19%29.68 "Hg4 mi
1:40 PM104 °FClear.13 mph20%29.71 "Hg4 mi
1:10 PM102 °FClear.12 mph23%29.74 "Hg4 mi
12:10 PM100 °FClear.9 mph29%29.77 "Hg4 mi
11:40 AM100 °FClear.9 mph29%29.80 "Hg4 mi
11:10 AM99 °FClear.7 mph31%29.80 "Hg4 mi
10:40 AM97 °FClear.7 mph32%29.83 "Hg4 mi
10:10 AM97 °FClear.7 mph32%29.83 "Hg4 mi
9:10 AM91 °FHaze.9 mph26%29.86 "Hg3 mi
8:40 AM88 °FHaze.7 mph40%29.86 "Hg3 mi
7:40 AM81 °FHaze.5 mph51%29.83 "Hg2 mi
6:40 AM73 °FHaze.No wind61%29.80 "Hg2 mi
2:40 AM75 °FHaze.No wind57%29.77 "Hg3 mi
2:10 AM75 °FHaze.2 mph57%29.77 "Hg3 mi
12:10 AM77 °FHaze.No wind69%29.80 "Hg3 mi
11:40 PM
Fri, Apr 17
79 °FHaze.No wind51%29.83 "Hg3 mi
10:40 PM79 °FHaze.2 mph65%29.83 "Hg3 mi
10:10 PM81 °FHaze.No wind48%29.83 "Hg3 mi
Weather by CustomWeather, © 2015

See weather overviewHow to use our weather pages